Location: Cussy
(47.0410°N, 4.6412°E)
Time: 18:32:36
(UTC+00:00)

OE (NEXTSAT) - Visible Passes

Search period start: 16 April 2021 00:00
Search period end: 26 April 2021 00:00
Orbit: 426 x 433 km, 46.0° (Epoch: 15 April)

Date Brightness Start Highest point End Pass type
(mag) Time Alt. Az. Time Alt. Az. Time Alt. Az.
16 Apr 5.6 03:59:28 11° SW 04:02:29 32° SSE 04:05:36 10° E visible
17 Apr 5.9 03:16:43 20° S 03:17:55 25° SSE 03:20:50 10° E visible
18 Apr 6.3 02:33:53 19° SE 02:33:53 19° SE 02:35:59 10° E visible
18 Apr 4.6 04:07:04 10° WSW 04:10:29 57° SSE 04:13:53 10° E visible
19 Apr 4.7 03:24:10 25° SW 03:25:51 49° SSE 03:29:13 10° E visible
20 Apr 5.0 02:41:17 40° SSE 02:41:17 40° SSE 02:44:31 10° E visible
21 Apr 6.4 01:58:22 20° ESE 01:58:22 20° ESE 01:59:47 10° E visible
21 Apr 4.3 03:31:30 18° WSW 03:33:55 72° S 03:37:22 10° E visible
22 Apr 4.3 02:48:34 51° SW 02:49:14 66° S 02:52:41 10° E visible
23 Apr 5.4 02:05:39 38° ESE 02:05:39 38° ESE 02:07:59 10° E visible
23 Apr 4.3 03:38:47 12° W 03:42:00 74° S 03:45:27 10° E visible
24 Apr 7.1 01:22:45 14° E 01:22:45 14° E 01:23:17 10° E visible
24 Apr 4.2 02:55:53 33° W 02:57:18 76° S 03:00:46 10° E visible
25 Apr 4.5 02:13:02 63° ESE 02:13:02 63° ESE 02:16:04 10° E visible
25 Apr 4.6 03:46:37 10° W 03:50:00 51° SSW 03:53:22 10° ESE visible
